Weather History for Kendall, FL

Change the Weather History Date:

Sunday, October 7, 2012

  Actual Average Record
Temperature  
Mean Temperature 81 °F -  
Max Temperature 88 °F 87 °F 91 °F (2013)
Min Temperature 75 °F 70 °F 38 °F (1997)
Cooling Degree Days 16    
Growing Degree Days 31 (Base 50)    
Moisture  
Dew Point 74 °F    
Average Humidity 86    
Maximum Humidity 96    
Minimum Humidity 67    
Precipitation  
Precipitation 0.17 in - - ()
Sea Level Pressure  
Sea Level Pressure 29.93 in    
Wind  
Wind Speed 5 mph (NE)    
Max Wind Speed 13 mph    
Max Gust Speed -    
Visibility 10 miles    
Events Rain , Thunderstorm    
Averages and records for this station are not official NWS values.
T = Trace of Precipitation, MM = Missing Value Source: NWS Daily Summary

Daily Weather History Graph

Daily Weather History Graph

Search for Another Location

Airport:

Trip Planner

Search our weather history database for the weather conditions in past years. The results will help you decide how hot, cold, wet, or windy it might be!

Date:

Astronomy

Oct. 07, 2012 Rise Set
Actual Time 7:16 AM EDT 7:01 PM EDT
Civil Twilight 6:53 AM EDT 7:24 PM EDT
Nautical Twilight 6:27 AM EDT 7:51 PM EDT
Astronomical Twilight 6:00 AM EDT 8:17 PM EDT
Moon No Moon Rise 1:29 PM EDT (10/7)
Length of Visible Light 12h 30m
Length of Day
11h 44m
Waning Gibbous, 56% of the Moon is Illuminated
Oct 7
Waning Gibbous
Oct 8
Last Quarter
Oct 15
New
Oct 21
First Quarter
Oct 29
Full

Hourly Weather History & Observations

Time (EDT) Temp. Heat Index Dew Point Humidity Pressure Visibility Wind Dir Wind Speed Gust Speed Precip Events Conditions
12:05 AM 78.8 °F - 75.2 °F 89% 29.93 in 10.0 mi NNE 4.6 mph - 0.00 in Rain , Thunderstorm Light Rain
12:23 AM 78.8 °F - 75.2 °F 89% 29.94 in 10.0 mi NNW 6.9 mph - 0.01 in Rain Light Rain
12:53 AM 78.1 °F - 75.9 °F 93% 29.94 in 10.0 mi North 5.8 mph - 0.11 in Rain Light Rain
1:53 AM 75.9 °F - 72.0 °F 87% 29.94 in 10.0 mi East 5.8 mph - 0.02 in Rain Light Rain
2:53 AM 75.9 °F - 73.0 °F 91% 29.91 in 10.0 mi ENE 3.5 mph - 0.00 in   Clear
3:53 AM 77.0 °F - 75.0 °F 94% 29.89 in 10.0 mi Calm Calm - N/A   Clear
4:53 AM 77.0 °F - 73.9 °F 90% 29.88 in 10.0 mi SE 4.6 mph - N/A   Clear
5:53 AM 75.9 °F - 73.9 °F 94% 29.88 in 10.0 mi Calm Calm - N/A   Clear
6:53 AM 75.9 °F - 73.9 °F 94% 29.91 in 10.0 mi NNW 4.6 mph - N/A   Clear
7:53 AM 77.0 °F - 75.0 °F 94% 29.92 in 10.0 mi NNE 5.8 mph - N/A   Clear
8:53 AM 79.0 °F - 75.9 °F 90% 29.94 in 10.0 mi Calm Calm - 0.00 in Rain Light Rain
9:00 AM 80.6 °F 86.2 °F 75.2 °F 84% 29.94 in 10.0 mi NNE 4.6 mph - 0.00 in   Mostly Cloudy
9:15 AM 80.6 °F 86.2 °F 75.2 °F 84% 29.94 in 10.0 mi NNE 5.8 mph - 0.00 in   Mostly Cloudy
9:53 AM 82.9 °F 90.2 °F 75.0 °F 77% 29.96 in 10.0 mi NNE 6.9 mph - 0.00 in   Clear
10:53 AM 84.9 °F 91.4 °F 73.0 °F 67% 29.97 in 10.0 mi NE 11.5 mph - N/A   Clear
11:53 AM 84.0 °F 92.6 °F 75.9 °F 76% 29.96 in 10.0 mi East 5.8 mph - N/A   Mostly Cloudy
12:53 PM 87.1 °F 96.3 °F 75.0 °F 67% 29.95 in 10.0 mi East 8.1 mph - N/A   Scattered Clouds
1:53 PM 82.9 °F 88.8 °F 73.0 °F 72% 29.94 in 10.0 mi NE 10.4 mph - N/A   Mostly Cloudy
2:06 PM 80.6 °F 85.4 °F 73.4 °F 79% 29.93 in 10.0 mi NE 9.2 mph - N/A   Overcast
2:46 PM 78.8 °F - 73.4 °F 83% 29.93 in 10.0 mi NNE 12.7 mph - 0.00 in   Mostly Cloudy
2:53 PM 79.0 °F - 73.9 °F 84% 29.92 in 10.0 mi NE 10.4 mph - 0.00 in   Mostly Cloudy
3:53 PM 81.0 °F 84.4 °F 70.0 °F 69% 29.91 in 10.0 mi NE 6.9 mph - N/A   Scattered Clouds
4:53 PM 78.1 °F - 73.9 °F 87% 29.92 in 10.0 mi North 3.5 mph - 0.02 in Rain Light Rain
5:53 PM 79.0 °F - 75.0 °F 88% 29.92 in 10.0 mi NNE 6.9 mph - 0.02 in   Mostly Cloudy
6:53 PM 77.0 °F - 71.1 °F 82% 29.94 in 10.0 mi NE 4.6 mph - 0.00 in   Partly Cloudy
7:53 PM 77.0 °F - 73.9 °F 90% 29.94 in 10.0 mi East 3.5 mph - N/A   Clear
8:53 PM 75.9 °F - 73.9 °F 94% 29.96 in 10.0 mi SE 5.8 mph - N/A   Clear
9:53 PM 77.0 °F - 75.0 °F 94% 29.98 in 10.0 mi Calm Calm - N/A   Clear
10:53 PM 77.0 °F - 75.9 °F 96% 29.97 in 10.0 mi Calm Calm - N/A   Scattered Clouds
11:53 PM 77.0 °F - 75.9 °F 96% 29.95 in 10.0 mi NNE 4.6 mph - N/A   Clear